Wind_Speed
5 5 5 4 3 2 1 1 3 2 4 3 4 3 4 4 3 3 3 3 4 5 2 2 4 4 5 6 6 5 5 5 5 7 8 9 9 11 12 12 12 13 13
5 6 5 4 1 2 0 3 5 4 4 3 4 3 3 3 3 4 5 2 1 3 3 4 6 6 6 6 5 4 4 3 3 5 6 7 8 9 9 10 11 11 12
6 7 5 3 3 2 2 2 4 2 3 4 4 3 2 1 2 3 2 5 5 5 6 5 6 6 6 4 3 3 2 3 5 6 6 7 8 8 8 7 9 10 11
7 7 6 4 3 1 1 2 3 3 4 4 5 4 3 2 1 4 2 5 5 7 6 5 6 5 4 4 3 2 2 3 5 6 6 6 7 7 6 6 7 9 10
6 6 6 5 3 2 1 1 2 4 6 6 5 4 3 2 3 6 5 6 6 6 6 5 5 4 3 2 2 1 2 4 5 6 6 6 6 6 5 5 5 6 7
6 7 6 6 4 3 1 2 4 6 5 7 10 5 4 2 2 4 6 5 6 6 5 5 3 4 3 3 2 2 2 3 5 4 5 7 7 6 6 5 4 5 6
9 8 7 7 5 3 1 2 5 4 7 6 9 4 3 2 3 5 7 4 6 5 4 4 4 3 4 2 3 3 2 1 2 2 5 6 7 7 5 5 4 4 6
9 8 6 6 5 4 1 2 4 8 3 4 7 8 3 8 6 7 6 5 5 5 4 5 4 4 3 2 3 2 2 1 0 2 4 6 6 6 6 5 4 4 4
9 9 7 4 5 4 3 1 2 3 6 3 3 6 3 2 5 5 4 3 3 4 4 4 5 4 5 3 3 1 1 1 1 1 3 4 3 4 5 6 5 4 4
10 9 7 7 6 6 5 4 3 3 3 4 1 2 5 5 3 4 6 3 3 4 4 4 6 5 5 4 4 5 1 1 1 1 3 5 6 5 4 5 6 6 5
10 9 7 8 8 7 7 6 4 4 3 3 2 2 4 1 1 6 2 11 5 2 3 4 4 4 6 4 4 5 2 2 2 2 2 3 5 6 7 8 9 8 7
13 11 9 9 9 7 7 7 6 6 5 4 4 5 4 4 3 4 3 2 4 4 2 4 5 4 6 6 4 6 4 2 1 1 1 1 3 5 8 10 10 10 9
13 12 11 10 10 11 9 8 7 6 8 7 6 7 4 5 4 4 6 5 5 2 2 3 4 5 6 6 6 5 5 3 2 1 1 2 2 4 5 6 10 8 10
12 11 12 13 14 11 10 10 10 8 9 9 8 6 6 6 4 5 7 4 5 4 5 2 3 5 5 6 8 6 4 6 5 3 2 2 2 3 3 3 3 8 6
12 9 11 12 12 12 12 11 11 9 8 9 8 9 8 8 5 6 6 8 6 5 3 6 3 4 4 4 5 4 5 7 6 4 3 2 2 1 1 3 3 1 3
14 11 10 9 9 10 11 11 11 10 10 9 9 7 8 7 7 7 7 5 9 5 2 6 2 3 4 4 6 6 9 5 7 6 5 4 2 2 1 2 2 2 2
16 16 14 12 11 11 12 13 13 12 11 10 8 9 9 8 8 7 6 6 8 7 7 6 2 4 5 7 7 8 6 5 5 8 6 5 4 3 3 2 2 3 3
17 17 17 16 14 12 12 12 12 13 12 13 12 11 10 10 9 8 9 6 9 9 12 7 4 7 8 9 10 8 7 7 5 5 6 5 4 4 4 3 3 3 4
20 19 19 19 18 17 14 15 15 13 14 15 14 14 13 12 12 11 9 10 10 10 12 13 8 8 6 11 12 11 9 8 6 7 7 8 8 7 7 6 5 5 5
20 20 20 20 21 19 17 16 15 15 15 15 15 15 15 14 13 13 11 11 12 12 11 12 10 9 12 11 12 12 12 11 8 6 6 9 8 9 9 8 8 8 8
20 18 19 20 20 20 20 18 17 16 14 15 14 14 15 16 16 16 13 12 11 13 14 13 15 13 13 9 15 12 10 11 11 12 10 8 8 6 7 9 8 9 9
18 18 19 20 21 21 22 22 21 18 17 16 16 15 16 17 19 21 20 19 16 14 15 15 17 10 12 13 11 13 13 9 5 15 14 11 11 9 8 7 10 10 10
14 16 19 21 23 22 21 22 22 22 19 18 17 17 18 19 19 18 17 17 20 22 21 18 18 18 15 13 15 15 16 14 14 10 15 13 12 11 9 9 11 12 11
16 18 19 21 22 23 22 24 22 21 22 22 22 21 21 20 19 18 17 17 18 17 18 22 22 20 17 16 16 19 18 15 7 14 16 11 12 10 10 11 13 12 12
15 17 17 18 20 20 21 22 20 18 21 22 22 22 22 22 21 21 21 21 22 22 21 24 24 21 21 20 17 14 16 17 12 12 18 10 12 13 11 11 9 12 13
13 14 16 15 16 17 17 17 16 17 20 20 20 21 22 24 22 22 22 21 23 23 21 17 19 25 28 26 24 23 20 20 20 11 18 17 14 12 6 13 12 12 14
Wind_Direction
161 153 154 151 177 190 124 3 338 347 339 327 337 322 338 15 94 72 112 161 136 114 155 177 135 134 144 155 163 171 174 185 206 224 230 239 249 254 253 250 245 241 242
162 153 154 146 180 180 177 341 328 319 335 352 5 21 19 60 111 96 91 129 150 146 140 136 121 127 133 139 150 158 158 165 218 242 251 252 255 254 253 250 243 240 237
161 157 159 150 151 181 28 336 340 311 333 353 9 15 18 53 115 121 84 91 104 114 135 124 122 126 134 136 140 152 173 216 234 242 249 251 253 257 261 243 239 238 239
156 159 167 154 171 114 92 54 24 353 346 346 356 342 340 331 243 191 128 109 104 116 114 136 135 139 137 145 156 166 227 255 261 256 250 251 249 252 251 240 246 236 234
171 163 169 160 156 155 120 4 1 352 339 346 329 344 347 129 137 136 134 131 123 111 122 155 166 160 167 173 182 230 291 290 279 270 256 260 249 251 251 259 249 231 228
176 166 164 159 155 178 181 7 341 344 329 340 338 29 58 114 159 156 149 148 140 129 127 147 159 197 233 205 220 206 261 295 293 275 249 242 244 247 246 251 246 229 224
158 163 161 155 155 169 49 335 320 307 319 342 289 143 106 114 144 167 159 144 153 158 155 153 175 189 187 207 224 215 225 317 318 254 234 229 231 238 241 244 241 227 224
176 169 165 167 172 170 127 8 348 319 307 346 344 288 198 163 114 122 136 155 143 154 163 189 188 200 182 164 180 198 178 167 249 203 232 230 229 230 230 233 239 237 231
193 184 181 182 186 198 207 273 310 325 324 309 343 314 285 69 164 157 173 163 171 185 186 195 200 193 186 178 176 191 143 124 120 149 181 205 214 241 234 232 234 238 239
200 206 199 204 210 232 225 229 252 284 286 303 347 338 334 353 347 130 149 148 204 206 193 189 197 202 191 197 199 193 191 119 122 125 167 186 199 228 244 242 242 240 239
202 209 207 209 217 242 223 222 222 234 228 260 276 276 255 275 329 323 240 158 175 129 180 206 194 201 195 201 179 208 189 148 134 126 141 187 212 229 239 246 244 241 238
207 213 215 220 222 235 232 234 234 226 218 225 253 247 280 293 347 298 275 228 327 123 253 206 206 210 206 202 207 201 201 181 169 157 159 229 244 248 250 245 238 238 233
212 216 216 223 229 233 239 239 242 240 212 214 223 262 247 267 277 281 280 336 325 11 226 217 212 210 204 206 189 173 208 211 202 228 260 275 293 302 303 263 227 223 232
230 227 229 238 230 230 236 238 243 242 223 221 222 236 257 260 267 273 284 316 296 254 184 249 193 191 196 203 202 186 212 210 213 231 259 281 305 323 351 50 181 208 237
242 232 244 242 230 232 231 234 242 244 230 231 232 238 242 245 242 266 268 269 265 295 27 158 166 206 200 201 198 185 192 215 216 236 249 251 269 322 68 107 115 191 207
228 222 229 235 248 254 245 234 239 240 237 230 224 235 240 249 247 253 263 290 266 263 255 343 75 158 204 207 219 182 201 214 225 234 239 242 275 295 282 160 153 173 180
230 230 233 241 244 247 253 253 255 258 242 240 240 227 236 239 252 268 264 243 261 235 246 265 212 205 192 184 178 177 192 191 235 234 242 239 250 270 273 259 175 181 212
234 232 232 239 239 239 236 245 254 255 249 254 249 232 236 240 236 246 244 243 237 243 261 256 255 225 213 193 184 188 194 202 200 251 255 239 240 253 258 259 249 214 178
233 235 234 234 236 233 229 234 240 251 247 247 248 247 242 239 246 259 255 249 248 237 234 247 256 217 193 196 184 194 192 198 196 244 248 233 229 233 234 234 226 216 202
231 231 233 235 235 234 233 232 230 232 237 241 240 243 242 242 245 248 250 253 249 249 239 244 240 227 222 210 208 205 204 208 206 194 193 205 216 225 234 220 208 196 187
229 235 232 232 236 235 231 228 231 228 220 227 242 248 241 240 236 239 247 244 242 241 247 249 250 232 220 190 199 212 202 201 204 199 197 196 192 186 185 187 194 193 191
227 231 233 232 232 236 234 231 232 235 232 231 234 240 243 247 247 247 247 243 239 245 251 267 264 264 257 229 215 206 191 180 203 220 205 211 207 201 197 191 206 197 193
227 233 237 236 234 235 239 233 236 233 239 240 242 244 245 245 239 246 251 252 251 246 242 242 250 261 265 244 226 211 212 217 228 190 188 203 203 198 192 204 204 196 192
238 239 240 240 238 235 236 237 235 234 241 245 245 244 243 246 245 242 245 247 251 252 253 247 242 248 249 248 237 229 219 217 194 185 192 198 194 194 192 201 196 195 191
241 237 236 243 240 236 238 238 231 230 239 241 243 243 242 244 247 246 245 252 251 252 252 245 244 241 241 241 231 223 207 180 199 199 196 182 176 185 192 189 203 196 190
248 243 238 237 242 246 243 249 235 231 244 247 249 249 251 247 247 244 244 247 253 254 256 249 241 245 242 244 241 223 215 212 221 190 203 181 169 169 160 200 184 193 187
Height
849 849 850 851 851 851 851 851 851 850 849 848 847 846 845 845 846 846 847 848 848 849 850 851 851 852 853 854 855 856 856 857 859 861 862 863 863 865 865 865 865 866 866
850 850 851 852 851 851 851 851 851 850 849 848 847 846 846 845 846 847 847 847 848 848 849 851 851 852 853 854 856 857 856 857 859 860 861 861 862 862 863 864 863 864 865
849 850 851 852 852 851 851 851 851 850 849 848 846 845 846 846 846 846 847 847 847 848 849 850 851 852 853 854 855 856 857 858 859 859 859 860 861 861 862 862 862 862 863
849 850 851 851 851 852 852 851 851 850 849 847 846 845 845 845 845 845 846 846 847 847 848 850 851 853 854 855 855 856 857 858 858 858 858 859 860 860 860 860 859 860 861
849 850 851 851 852 852 852 851 850 851 848 846 842 843 844 844 844 844 846 847 847 847 848 849 851 852 853 855 855 855 856 857 857 857 857 857 859 859 859 858 859 859 859
848 850 850 851 852 852 852 852 852 851 850 848 843 843 844 845 845 844 845 845 847 847 848 850 851 852 853 854 854 855 855 855 855 855 855 856 857 858 858 858 858 858 858
848 849 850 850 851 851 852 853 852 850 848 848 844 840 844 844 843 843 844 844 846 847 848 849 850 851 851 853 853 854 854 854 854 854 855 855 856 856 857 857 857 857 857
848 849 850 850 851 851 852 852 852 851 848 849 847 842 835 841 841 842 843 844 844 845 847 849 850 851 852 852 853 852 852 853 853 854 854 854 855 855 855 856 856 856 856
848 848 849 850 850 850 850 851 851 851 848 848 849 846 839 834 837 842 845 844 845 845 846 848 850 851 851 851 852 852 852 852 852 852 853 854 854 854 854 854 855 855 855
847 848 848 849 850 849 849 849 849 849 850 848 848 848 847 846 834 837 842 844 845 844 845 847 848 850 851 850 851 851 851 851 852 851 852 853 853 853 853 853 853 853 854
845 846 847 847 848 848 848 847 847 847 847 848 848 848 848 845 845 840 835 838 842 844 845 846 846 848 850 850 851 851 851 851 851 851 851 851 852 852 852 852 852 852 852
842 843 844 845 846 846 846 846 846 845 845 846 847 848 844 843 839 840 838 838 838 842 845 845 846 847 848 849 850 850 851 851 851 851 850 851 851 850 850 849 849 849 850
837 840 842 844 844 845 845 845 845 844 844 844 845 844 844 844 844 843 842 837 838 837 840 843 844 846 847 848 848 849 850 850 851 850 850 849 849 849 847 846 846 847 848
834 837 839 841 841 842 844 844 844 843 843 843 843 844 843 843 843 844 843 841 838 835 835 840 843 844 846 846 846 848 848 849 850 850 850 849 849 848 847 846 845 846 847
833 835 837 838 839 840 841 841 841 842 842 842 841 842 843 841 840 841 842 842 841 836 833 839 842 844 844 846 846 848 849 847 849 849 849 849 848 847 847 847 847 846 846
831 833 834 836 837 838 839 840 839 839 840 839 839 841 841 839 839 839 839 841 839 839 841 835 836 841 843 844 844 847 847 846 847 848 848 848 848 847 847 846 847 847 847
827 829 831 831 832 834 836 837 838 837 837 837 837 838 839 840 839 837 837 839 839 839 838 839 838 840 841 843 843 844 845 848 845 845 846 847 847 846 846 846 846 847 847
823 825 827 827 828 830 831 834 834 833 834 835 836 836 836 836 837 837 835 835 835 837 835 834 836 838 839 840 840 841 844 846 846 843 844 845 845 845 846 846 846 846 847
816 819 822 823 823 824 825 827 829 830 830 831 833 833 833 833 834 833 833 832 831 832 832 832 831 834 837 837 838 839 841 842 842 842 843 843 844 844 845 845 845 844 845
811 812 814 817 819 819 820 821 823 825 827 827 828 828 829 829 830 830 830 830 829 829 828 828 827 829 832 833 835 836 837 838 839 841 842 842 841 841 841 842 842 842 842
805 807 809 810 812 814 813 815 817 819 820 822 824 824 824 824 825 826 826 825 826 825 823 823 821 823 826 828 828 831 833 835 836 838 839 839 839 840 839 839 840 841 842
800 801 803 804 805 806 806 808 811 813 815 816 816 817 818 819 819 819 819 820 821 821 820 820 815 817 819 821 823 825 828 830 833 832 834 836 838 839 840 840 838 840 841
795 796 796 797 798 799 801 802 805 808 808 810 811 812 812 812 813 814 814 814 814 814 814 815 814 813 813 815 818 820 822 823 823 825 829 831 833 835 836 835 836 838 840
790 790 790 791 792 794 795 797 799 802 804 805 805 806 806 806 807 807 808 807 808 808 808 808 808 808 809 810 811 812 815 818 819 821 823 825 828 830 831 832 833 836 838
785 785 785 786 787 789 790 793 794 797 798 799 799 799 800 800 801 802 803 803 802 800 799 800 802 802 802 803 805 807 809 811 814 815 817 819 823 826 828 829 831 833 836
781 781 781 782 783 784 786 788 790 792 793 793 793 793 793 793 794 795 796 797 795 795 794 793 793 794 795 795 796 799 801 803 804 808 808 811 814 820 825 827 829 831 835